UAL731 NZCH-KSFO

Flight info

Callsign UAL731
Flight time N/A
Altitude 35000
Route GRETA Y393 WN H534 PM H201 RIDLA H103 NR H245 GS R327 IBESO DCT 30S175W/N0498F370 25S172W 20S170W 15S167W 10S165W 05S160W/N0493F390 00N152W 05N147W 10N142W 20N135W/N0483F410 DCT AFONE DCT 30N129W DCT CINNY PIRAT3
Aircraft B788/H-SDE1E2E3FGHIJ2J3J4J5M1RWXY/LB1D1

Departure

Time N/A
Airport Christchurch International Airport (NZCH)

Arrival

Time 2026-05-07 20:15
Airport San Francisco International Airport (KSFO)
Time Latitude Longitude Altitude Speed Heading
2026-05-07 16:40 14.37737 -139.03338 38853 ft 534 kts 28°
2026-05-07 16:40 14.39879 -139.01855 38861 ft 534 kts 28°
2026-05-07 16:41 14.46228 -138.97457 38863 ft 534 kts 28°
2026-05-07 16:41 14.52447 -138.93146 38857 ft 533 kts 28°
2026-05-07 16:42 14.58588 -138.88886 38863 ft 533 kts 28°
2026-05-07 16:42 14.64759 -138.84602 38862 ft 533 kts 28°
2026-05-07 16:43 14.70908 -138.80331 38863 ft 533 kts 28°
2026-05-07 16:43 14.77297 -138.75891 38861 ft 535 kts 28°
2026-05-07 16:44 14.82746 -138.72100 38866 ft 536 kts 28°
2026-05-07 16:44 14.89331 -138.67516 38868 ft 536 kts 28°
2026-05-07 16:45 14.95801 -138.63009 38867 ft 536 kts 28°
2026-05-07 16:45 15.02018 -138.58675 38872 ft 535 kts 28°
2026-05-07 16:46 15.07324 -138.54973 38874 ft 535 kts 28°
2026-05-07 16:46 15.13512 -138.50654 38876 ft 534 kts 28°
2026-05-07 16:47 15.19781 -138.46275 38879 ft 533 kts 28°
2026-05-07 16:47 15.25905 -138.41994 38877 ft 533 kts 28°
2026-05-07 16:48 15.32009 -138.37724 38879 ft 532 kts 28°
2026-05-07 16:48 15.38165 -138.33415 38880 ft 533 kts 28°
2026-05-07 16:49 15.44354 -138.29079 38880 ft 533 kts 28°
2026-05-07 16:49 15.50531 -138.24749 38883 ft 534 kts 28°
2026-05-07 16:50 15.56804 -138.20348 38881 ft 535 kts 28°
2026-05-07 16:50 15.62770 -138.16159 38883 ft 536 kts 28°
2026-05-07 16:51 15.69046 -138.11750 38889 ft 538 kts 29°
2026-05-07 16:51 15.75228 -138.07402 38888 ft 538 kts 29°
2026-05-07 16:52 15.80528 -138.03673 38893 ft 538 kts 29°
2026-05-07 16:52 15.86763 -137.99283 38892 ft 538 kts 29°
2026-05-07 16:53 15.92997 -137.94891 38897 ft 538 kts 29°
2026-05-07 16:53 15.99289 -137.90453 38896 ft 539 kts 29°
2026-05-07 16:54 16.05712 -137.85920 38896 ft 540 kts 29°
2026-05-07 16:54 16.11951 -137.81514 38896 ft 541 kts 29°
2026-05-07 16:55 16.18472 -137.76905 38891 ft 541 kts 29°
2026-05-07 16:55 16.24762 -137.72454 38901 ft 542 kts 29°
2026-05-07 16:56 16.31044 -137.68007 38895 ft 542 kts 29°
2026-05-07 16:56 16.39522 -137.61999 38897 ft 541 kts 28°
2026-05-07 16:57 16.45817 -137.57534 38899 ft 541 kts 28°
2026-05-07 16:57 16.52067 -137.53097 38903 ft 541 kts 28°
2026-05-07 16:58 16.58317 -137.48657 38910 ft 543 kts 28°
2026-05-07 16:58 16.64565 -137.44215 38910 ft 545 kts 28°
2026-05-07 16:59 16.70494 -137.39996 38912 ft 546 kts 28°
2026-05-07 16:59 16.76925 -137.35416 38914 ft 545 kts 28°
2026-05-07 17:00 16.83154 -137.30977 38916 ft 544 kts 28°
2026-05-07 17:00 16.88269 -137.27328 38919 ft 543 kts 28°
2026-05-07 17:01 16.93097 -137.23883 38923 ft 544 kts 28°
2026-05-07 17:01 16.98652 -137.19916 38919 ft 545 kts 28°
2026-05-07 17:02 17.04970 -137.15399 38920 ft 545 kts 28°
2026-05-07 17:02 17.11268 -137.10895 38920 ft 545 kts 28°
2026-05-07 17:03 17.17561 -137.06389 38922 ft 544 kts 28°
2026-05-07 17:03 17.23838 -137.01891 38921 ft 544 kts 28°
2026-05-07 17:04 17.30200 -136.97329 38925 ft 544 kts 28°
2026-05-07 17:04 17.36679 -136.92679 38924 ft 546 kts 28°
2026-05-07 17:05 17.41224 -136.89413 38931 ft 546 kts 28°
2026-05-07 17:05 17.47257 -136.85077 38922 ft 544 kts 27°
2026-05-07 17:06 17.53388 -136.80667 38931 ft 543 kts 27°
2026-05-07 17:06 17.59514 -136.76256 38931 ft 541 kts 27°
2026-05-07 17:07 17.65829 -136.71705 38935 ft 541 kts 27°
2026-05-07 17:07 17.72096 -136.67185 38936 ft 541 kts 27°
2026-05-07 17:08 17.78394 -136.62639 38939 ft 540 kts 27°
2026-05-07 17:08 17.84575 -136.58174 38941 ft 541 kts 27°
2026-05-07 17:09 17.90808 -136.53666 38942 ft 541 kts 27°
2026-05-07 17:09 17.97033 -136.49161 38942 ft 541 kts 27°
2026-05-07 17:10 18.03341 -136.44592 38944 ft 540 kts 27°
2026-05-07 17:10 18.09592 -136.40059 38946 ft 540 kts 28°
2026-05-07 17:11 18.14802 -136.36279 38950 ft 539 kts 28°
2026-05-07 17:11 18.21117 -136.31693 38947 ft 539 kts 28°
2026-05-07 17:12 18.27317 -136.27187 38948 ft 538 kts 28°
2026-05-07 17:12 18.33439 -136.22733 38949 ft 537 kts 28°
2026-05-07 17:13 18.39565 -136.18273 38951 ft 537 kts 28°
2026-05-07 17:13 18.45682 -136.13815 38948 ft 537 kts 28°
2026-05-07 17:14 18.52143 -136.09102 38954 ft 537 kts 28°
2026-05-07 17:14 18.57080 -136.05498 38951 ft 536 kts 28°
2026-05-07 17:15 18.63303 -136.00951 38956 ft 536 kts 28°
2026-05-07 17:15 18.69463 -135.96447 38954 ft 536 kts 28°
2026-05-07 17:16 18.75632 -135.91931 38951 ft 535 kts 28°
2026-05-07 17:16 18.80762 -135.88173 38955 ft 535 kts 28°
2026-05-07 17:17 18.86948 -135.83639 38959 ft 536 kts 28°
2026-05-07 17:17 18.93079 -135.79139 38961 ft 537 kts 28°
2026-05-07 17:18 18.99261 -135.74599 38959 ft 538 kts 28°
2026-05-07 17:18 19.05508 -135.70006 38966 ft 538 kts 28°
2026-05-07 17:19 19.11640 -135.65494 38967 ft 537 kts 28°
2026-05-07 17:19 19.17881 -135.60897 38963 ft 537 kts 28°
2026-05-07 17:20 19.24111 -135.56304 38970 ft 538 kts 28°
2026-05-07 17:20 19.30293 -135.51742 38968 ft 539 kts 28°
2026-05-07 17:21 19.36550 -135.47120 38975 ft 538 kts 28°
2026-05-07 17:21 19.42711 -135.42566 38975 ft 537 kts 28°
2026-05-07 17:22 19.48962 -135.37940 38981 ft 537 kts 28°
2026-05-07 17:22 19.55119 -135.33379 38980 ft 538 kts 28°
2026-05-07 17:23 19.61250 -135.28833 38983 ft 538 kts 28°
2026-05-07 17:23 19.67419 -135.24255 38983 ft 539 kts 28°
2026-05-07 17:24 19.72668 -135.20355 38976 ft 539 kts 28°
2026-05-07 17:24 19.78794 -135.15802 38979 ft 540 kts 28°
2026-05-07 17:25 19.84983 -135.11195 38987 ft 540 kts 28°
2026-05-07 17:25 19.91162 -135.06593 38985 ft 540 kts 28°
2026-05-07 17:26 19.97353 -135.01976 38987 ft 540 kts 28°
2026-05-07 17:26 20.03813 -134.98034 38990 ft 531 kts 19°
2026-05-07 17:27 20.10585 -134.94565 38991 ft 531 kts 19°
2026-05-07 17:27 20.17245 -134.91129 38987 ft 530 kts 19°
2026-05-07 17:28 20.24006 -134.87651 38988 ft 530 kts 19°
2026-05-07 17:28 20.30529 -134.84285 38990 ft 531 kts 18°
2026-05-07 17:29 20.37586 -134.80643 38992 ft 530 kts 18°
2026-05-07 17:29 20.43211 -134.77737 38991 ft 528 kts 18°
2026-05-07 17:30 20.46686 -134.75938 39297 ft 522 kts 18°
2026-05-07 17:30 20.50027 -134.74207 39692 ft 517 kts 18°
2026-05-07 17:30 20.53234 -134.72551 39944 ft 514 kts 18°
2026-05-07 17:30 20.56524 -134.70851 40182 ft 513 kts 18°
2026-05-07 17:31 20.59874 -134.69114 40421 ft 511 kts 18°
2026-05-07 17:31 20.63298 -134.67337 40655 ft 509 kts 17°
2026-05-07 17:31 20.66651 -134.65600 40870 ft 508 kts 17°
2026-05-07 17:31 20.69865 -134.63934 40991 ft 509 kts 17°
2026-05-07 17:32 20.75274 -134.61128 40988 ft 510 kts 17°
2026-05-07 17:32 20.81696 -134.57786 40983 ft 506 kts 17°
2026-05-07 17:33 20.88048 -134.54488 40986 ft 504 kts 17°
2026-05-07 17:33 20.94500 -134.51128 40990 ft 504 kts 17°
2026-05-07 17:34 21.00856 -134.47817 40995 ft 504 kts 17°
2026-05-07 17:34 21.07197 -134.44509 40997 ft 504 kts 17°
2026-05-07 17:35 21.13593 -134.41171 41005 ft 505 kts 17°
2026-05-07 17:35 21.20008 -134.37819 41015 ft 505 kts 17°
2026-05-07 17:36 21.26438 -134.34456 41011 ft 506 kts 18°
2026-05-07 17:36 21.32816 -134.31117 41009 ft 506 kts 18°
2026-05-07 17:37 21.38169 -134.28311 41012 ft 506 kts 18°
2026-05-07 17:37 21.43619 -134.25453 41012 ft 505 kts 18°
2026-05-07 17:38 21.46579 -134.23900 41012 ft 505 kts 18°
2026-05-07 17:38 21.51208 -134.21469 41015 ft 504 kts 18°
2026-05-07 17:39 21.57573 -134.18125 41011 ft 503 kts 18°
2026-05-07 17:39 21.64024 -134.14731 41012 ft 503 kts 19°
2026-05-07 17:40 21.70389 -134.11379 41015 ft 502 kts 19°
2026-05-07 17:40 21.76715 -134.08046 41017 ft 504 kts 19°
2026-05-07 17:41 21.82989 -134.04735 41024 ft 505 kts 19°
2026-05-07 17:41 21.89499 -134.01296 41021 ft 504 kts 19°
2026-05-07 17:42 21.94811 -133.98488 41027 ft 503 kts 20°
2026-05-07 17:42 22.01096 -133.95163 41028 ft 502 kts 20°
2026-05-07 17:43 22.07376 -133.91836 41022 ft 500 kts 20°
2026-05-07 17:43 22.13653 -133.88509 41032 ft 500 kts 20°
2026-05-07 17:44 22.19925 -133.85180 41030 ft 500 kts 20°
2026-05-07 17:44 22.26169 -133.81864 41034 ft 500 kts 20°
2026-05-07 17:45 22.32412 -133.78543 41034 ft 500 kts 20°
2026-05-07 17:45 22.38666 -133.75215 41039 ft 500 kts 20°
2026-05-07 17:46 22.44922 -133.71881 41040 ft 499 kts 21°
2026-05-07 17:46 22.51172 -133.68548 41039 ft 499 kts 21°
2026-05-07 17:47 22.57447 -133.65198 41037 ft 499 kts 21°
2026-05-07 17:47 22.63670 -133.61871 41044 ft 499 kts 21°
2026-05-07 17:48 22.69897 -133.58540 41039 ft 498 kts 21°
2026-05-07 17:48 22.76095 -133.55220 41051 ft 498 kts 21°
2026-05-07 17:49 22.82353 -133.51866 41046 ft 497 kts 21°
2026-05-07 17:49 22.88588 -133.48520 41043 ft 496 kts 21°
2026-05-07 17:50 22.94863 -133.45149 41046 ft 495 kts 21°
2026-05-07 17:50 23.01082 -133.41805 41055 ft 496 kts 21°
2026-05-07 17:51 23.07335 -133.38439 41043 ft 497 kts 21°
2026-05-07 17:51 23.13529 -133.35101 41046 ft 498 kts 22°
2026-05-07 17:52 23.19768 -133.31735 41049 ft 497 kts 22°
2026-05-07 17:52 23.26045 -133.28346 41049 ft 496 kts 22°
2026-05-07 17:53 23.32262 -133.24985 41053 ft 494 kts 22°
2026-05-07 17:53 23.38372 -133.21678 41056 ft 493 kts 22°
2026-05-07 17:54 23.44556 -133.18329 41057 ft 492 kts 22°
2026-05-07 17:54 23.50694 -133.15000 41053 ft 493 kts 22°
2026-05-07 17:55 23.56843 -133.11662 41058 ft 494 kts 22°
2026-05-07 17:55 23.63000 -133.08317 41057 ft 494 kts 22°
2026-05-07 17:56 23.68120 -133.05532 41061 ft 495 kts 22°
2026-05-07 17:56 23.74300 -133.02167 41061 ft 495 kts 22°
2026-05-07 17:57 23.80533 -132.98769 41068 ft 494 kts 22°
2026-05-07 17:57 23.86668 -132.95422 41068 ft 492 kts 22°
2026-05-07 17:58 23.92778 -132.92085 41070 ft 490 kts 22°
2026-05-07 17:58 23.98906 -132.88735 41070 ft 491 kts 22°
2026-05-07 17:59 24.05026 -132.85384 41072 ft 492 kts 22°
2026-05-07 17:59 24.11173 -132.82016 41071 ft 493 kts 22°
2026-05-07 18:00 24.17324 -132.78641 41076 ft 492 kts 22°
2026-05-07 18:00 24.23472 -132.75265 41073 ft 492 kts 23°
2026-05-07 18:01 24.29580 -132.71907 41067 ft 492 kts 23°
2026-05-07 18:01 24.35702 -132.68538 41078 ft 492 kts 23°
2026-05-07 18:02 24.44878 -132.63481 41083 ft 492 kts 23°
2026-05-07 18:03 24.50996 -132.60105 41084 ft 491 kts 23°
2026-05-07 18:03 24.57107 -132.56729 41080 ft 491 kts 23°
2026-05-07 18:04 24.63197 -132.53360 41079 ft 490 kts 23°
2026-05-07 18:04 24.69304 -132.49979 41085 ft 489 kts 23°
2026-05-07 18:05 24.75401 -132.46600 41085 ft 488 kts 23°
2026-05-07 18:05 24.81511 -132.43209 41087 ft 487 kts 23°
2026-05-07 18:06 24.87547 -132.39857 41089 ft 489 kts 23°
2026-05-07 18:06 24.93744 -132.36410 41088 ft 490 kts 23°
2026-05-07 18:07 24.99921 -132.32971 41091 ft 490 kts 23°
2026-05-07 18:07 25.06022 -132.29570 41094 ft 489 kts 23°
2026-05-07 18:08 25.12096 -132.26181 41094 ft 488 kts 24°
2026-05-07 18:08 25.18157 -132.22795 41093 ft 487 kts 24°
2026-05-07 18:09 25.24245 -132.19390 41094 ft 486 kts 24°
2026-05-07 18:09 25.30250 -132.16007 41099 ft 486 kts 27°
2026-05-07 18:10 25.36152 -132.12220 41083 ft 488 kts 26°
2026-05-07 18:10 25.42024 -132.08464 41096 ft 489 kts 27°
2026-05-07 18:11 25.47928 -132.04665 41093 ft 489 kts 27°
2026-05-07 18:11 25.53795 -132.00897 41096 ft 489 kts 27°
2026-05-07 18:12 25.59658 -131.97120 41100 ft 489 kts 27°
2026-05-07 18:12 25.65546 -131.93328 41098 ft 489 kts 27°
2026-05-07 18:13 25.71425 -131.89533 41102 ft 489 kts 27°
2026-05-07 18:13 25.77297 -131.85741 41101 ft 488 kts 27°
2026-05-07 18:14 25.82205 -131.82567 41099 ft 488 kts 27°
2026-05-07 18:14 25.88079 -131.78765 41107 ft 488 kts 27°
2026-05-07 18:15 25.93934 -131.74971 41105 ft 486 kts 27°
2026-05-07 18:15 25.99801 -131.71164 41105 ft 486 kts 27°
2026-05-07 18:16 26.05669 -131.67353 41105 ft 487 kts 27°
2026-05-07 18:16 26.11497 -131.63562 41102 ft 488 kts 27°
2026-05-07 18:17 26.17357 -131.59747 41106 ft 488 kts 27°
2026-05-07 18:17 26.23245 -131.55909 41106 ft 488 kts 27°
2026-05-07 18:18 26.29124 -131.52072 41113 ft 487 kts 27°
2026-05-07 18:18 26.34942 -131.48270 41109 ft 487 kts 27°
2026-05-07 18:19 26.40794 -131.44443 41109 ft 486 kts 27°
2026-05-07 18:19 26.46663 -131.40599 41113 ft 485 kts 27°
2026-05-07 18:20 26.52516 -131.36761 41114 ft 485 kts 27°
2026-05-07 18:20 26.58314 -131.32954 41115 ft 484 kts 27°
2026-05-07 18:21 26.64123 -131.29136 41111 ft 484 kts 27°
2026-05-07 18:21 26.69941 -131.25307 41117 ft 485 kts 27°
2026-05-07 18:22 26.75774 -131.21464 41117 ft 486 kts 27°
2026-05-07 18:22 26.81602 -131.17620 41117 ft 487 kts 27°
2026-05-07 18:23 26.87430 -131.13770 41118 ft 487 kts 27°
2026-05-07 18:23 26.93283 -131.09899 41117 ft 486 kts 27°
2026-05-07 18:24 26.99269 -131.05937 41120 ft 485 kts 27°
2026-05-07 18:24 27.05107 -131.02067 41122 ft 484 kts 27°
2026-05-07 18:25 27.10903 -130.98219 41120 ft 483 kts 27°
2026-05-07 18:25 27.16740 -130.94341 41121 ft 484 kts 27°
2026-05-07 18:26 27.22511 -130.90502 41119 ft 485 kts 27°
2026-05-07 18:26 27.28347 -130.86614 41121 ft 486 kts 27°
2026-05-07 18:27 27.34184 -130.82721 41123 ft 487 kts 27°
2026-05-07 18:27 27.40026 -130.78819 41126 ft 485 kts 27°
2026-05-07 18:28 27.45828 -130.74940 41123 ft 484 kts 27°
2026-05-07 18:28 27.51622 -130.71061 41125 ft 483 kts 27°
2026-05-07 18:29 27.57427 -130.67170 41125 ft 482 kts 27°
2026-05-07 18:29 27.63066 -130.63386 41123 ft 483 kts 27°
2026-05-07 18:30 27.68829 -130.59513 41125 ft 484 kts 27°
2026-05-07 18:30 27.74640 -130.55604 41121 ft 485 kts 27°
2026-05-07 18:31 27.80440 -130.51697 41126 ft 485 kts 27°
2026-05-07 18:31 27.85277 -130.48435 41120 ft 486 kts 27°
2026-05-07 18:32 27.91072 -130.44522 41126 ft 484 kts 27°
2026-05-07 18:32 27.96845 -130.40620 41126 ft 483 kts 27°
2026-05-07 18:33 28.02657 -130.36686 41125 ft 481 kts 27°
2026-05-07 18:33 28.08363 -130.32819 41126 ft 481 kts 27°
2026-05-07 18:34 28.14131 -130.28904 41127 ft 481 kts 27°
2026-05-07 18:34 28.19874 -130.25002 41129 ft 481 kts 27°
2026-05-07 18:35 28.25631 -130.21086 41132 ft 481 kts 27°
2026-05-07 18:35 28.31341 -130.17197 41130 ft 481 kts 28°
2026-05-07 18:36 28.37091 -130.13275 41127 ft 481 kts 28°
2026-05-07 18:36 28.42826 -130.09359 41131 ft 481 kts 28°
2026-05-07 18:37 28.48553 -130.05442 41129 ft 480 kts 28°
2026-05-07 18:37 28.54282 -130.01520 41126 ft 480 kts 28°
2026-05-07 18:38 28.60038 -129.97574 41131 ft 480 kts 28°
2026-05-07 18:38 28.65756 -129.93648 41130 ft 479 kts 28°
2026-05-07 18:39 28.71489 -129.89708 41132 ft 479 kts 28°
2026-05-07 18:39 28.77193 -129.85783 41123 ft 480 kts 28°
2026-05-07 18:40 28.82357 -129.82224 41123 ft 480 kts 28°
2026-05-07 18:40 28.88090 -129.78270 41126 ft 480 kts 28°
2026-05-07 18:41 28.93830 -129.74304 41132 ft 480 kts 28°
2026-05-07 18:41 28.99538 -129.70355 41123 ft 479 kts 28°
2026-05-07 18:42 29.05242 -129.66405 41123 ft 479 kts 28°
2026-05-07 18:42 29.10899 -129.62482 41123 ft 477 kts 28°
2026-05-07 18:43 29.16589 -129.58531 41130 ft 478 kts 28°
2026-05-07 18:43 29.22280 -129.54574 41123 ft 478 kts 28°
2026-05-07 18:44 29.27961 -129.50618 41129 ft 477 kts 28°
2026-05-07 18:44 29.33630 -129.46666 41134 ft 477 kts 28°
2026-05-07 18:45 29.39306 -129.42703 41133 ft 478 kts 28°
2026-05-07 18:45 29.44989 -129.38731 41133 ft 479 kts 28°
2026-05-07 18:46 29.50692 -129.34739 41133 ft 479 kts 28°
2026-05-07 18:46 29.56377 -129.30755 41132 ft 479 kts 28°
2026-05-07 18:47 29.62107 -129.26733 41131 ft 479 kts 28°
2026-05-07 18:47 29.67793 -129.22737 41130 ft 478 kts 28°
2026-05-07 18:48 29.73428 -129.18772 41133 ft 478 kts 28°
2026-05-07 18:48 29.79109 -129.14769 41133 ft 478 kts 28°
2026-05-07 18:49 29.84801 -129.10753 41132 ft 477 kts 28°
2026-05-07 18:49 29.89670 -129.07313 41131 ft 477 kts 28°
2026-05-07 18:50 29.95452 -129.03222 41133 ft 476 kts 28°
2026-05-07 18:50 30.00981 -128.99379 41140 ft 474 kts 25°
2026-05-07 18:51 30.07069 -128.95522 41130 ft 476 kts 26°
2026-05-07 18:51 30.12910 -128.91809 41130 ft 476 kts 26°
2026-05-07 18:52 30.18783 -128.88080 41134 ft 477 kts 26°
2026-05-07 18:52 30.24738 -128.84285 41132 ft 477 kts 26°
2026-05-07 18:53 30.30236 -128.80783 41130 ft 476 kts 26°
2026-05-07 18:53 30.35500 -128.77420 41133 ft 476 kts 26°
2026-05-07 18:54 30.41602 -128.73522 41131 ft 476 kts 26°
2026-05-07 18:54 30.47599 -128.69682 41128 ft 475 kts 26°
2026-05-07 18:55 30.53616 -128.65826 41129 ft 475 kts 26°
2026-05-07 18:55 30.58535 -128.62669 41130 ft 474 kts 26°
2026-05-07 18:56 30.64323 -128.58950 41128 ft 473 kts 26°
2026-05-07 18:56 30.70135 -128.55209 41132 ft 473 kts 26°
2026-05-07 18:57 30.75952 -128.51461 41131 ft 475 kts 26°
2026-05-07 18:57 30.81690 -128.47758 41130 ft 475 kts 26°
2026-05-07 18:58 30.87515 -128.43993 41130 ft 475 kts 26°
2026-05-07 18:58 30.93309 -128.40244 41127 ft 475 kts 26°
2026-05-07 18:59 30.99088 -128.36499 41127 ft 474 kts 26°
2026-05-07 18:59 31.04845 -128.32763 41128 ft 474 kts 26°
2026-05-07 19:00 31.10601 -128.29023 41128 ft 473 kts 26°
2026-05-07 19:00 31.16351 -128.25281 41126 ft 473 kts 26°
2026-05-07 19:01 31.22138 -128.21510 41127 ft 474 kts 26°
2026-05-07 19:01 31.27916 -128.17739 41129 ft 473 kts 26°
2026-05-07 19:02 31.33716 -128.13949 41132 ft 473 kts 26°
2026-05-07 19:02 31.39603 -128.10096 41125 ft 473 kts 26°
2026-05-07 19:03 31.45351 -128.06329 41130 ft 473 kts 27°
2026-05-07 19:03 31.51229 -128.02471 41122 ft 473 kts 27°
2026-05-07 19:04 31.56992 -127.98683 41123 ft 473 kts 27°
2026-05-07 19:04 31.62743 -127.94898 41121 ft 473 kts 27°
2026-05-07 19:05 31.68488 -127.91112 41126 ft 473 kts 27°
2026-05-07 19:05 31.73269 -127.87956 41121 ft 474 kts 27°
2026-05-07 19:06 31.79097 -127.84104 41130 ft 474 kts 27°
2026-05-07 19:06 31.87855 -127.78305 41120 ft 474 kts 27°
2026-05-07 19:07 31.93711 -127.74420 41119 ft 473 kts 27°
2026-05-07 19:07 31.99415 -127.70631 41125 ft 473 kts 27°
2026-05-07 19:08 32.04864 -127.67007 41127 ft 473 kts 27°
2026-05-07 19:08 32.08235 -127.64762 41128 ft 474 kts 27°
2026-05-07 19:09 32.13287 -127.61394 41122 ft 476 kts 27°
2026-05-07 19:09 32.19075 -127.57529 41125 ft 477 kts 27°
2026-05-07 19:10 32.23640 -127.54478 41121 ft 476 kts 27°
2026-05-07 19:10 32.24826 -127.53684 41121 ft 476 kts 27°
2026-05-07 19:11 32.29888 -127.50295 41117 ft 474 kts 27°
2026-05-07 19:11 32.34610 -127.47130 41119 ft 473 kts 27°
2026-05-07 19:12 32.40690 -127.43049 41116 ft 474 kts 27°
2026-05-07 19:12 32.43908 -127.40886 41121 ft 475 kts 27°
2026-05-07 19:13 32.48840 -127.37568 41123 ft 476 kts 27°
2026-05-07 19:13 32.53691 -127.34300 41124 ft 477 kts 27°
2026-05-07 19:14 32.59470 -127.30401 41117 ft 476 kts 27°
2026-05-07 19:14 32.65240 -127.26504 41118 ft 476 kts 27°
2026-05-07 19:15 32.70960 -127.22633 41117 ft 475 kts 27°
2026-05-07 19:15 32.76718 -127.18732 41112 ft 474 kts 27°
2026-05-07 19:16 32.82429 -127.14856 41108 ft 474 kts 27°
2026-05-07 19:16 32.88212 -127.10927 41110 ft 475 kts 27°
2026-05-07 19:17 32.93971 -127.07006 41107 ft 477 kts 27°
2026-05-07 19:17 32.99743 -127.03072 41114 ft 478 kts 27°
2026-05-07 19:18 33.05486 -126.99150 41112 ft 477 kts 27°
2026-05-07 19:18 33.11252 -126.95208 41108 ft 476 kts 27°
2026-05-07 19:19 33.17000 -126.91271 41111 ft 476 kts 27°
2026-05-07 19:19 33.22788 -126.87302 41111 ft 475 kts 27°
2026-05-07 19:20 33.28493 -126.83382 41110 ft 475 kts 27°
2026-05-07 19:20 33.34273 -126.79406 41111 ft 476 kts 27°
2026-05-07 19:21 33.39996 -126.75463 41108 ft 478 kts 27°
2026-05-07 19:21 33.45834 -126.71434 41110 ft 479 kts 27°
2026-05-07 19:22 33.51623 -126.67432 41105 ft 479 kts 27°
2026-05-07 19:22 33.57421 -126.63419 41106 ft 478 kts 27°
2026-05-07 19:23 33.63185 -126.59422 41106 ft 477 kts 27°
2026-05-07 19:23 33.68932 -126.55432 41103 ft 477 kts 27°
2026-05-07 19:24 33.74688 -126.51429 41098 ft 476 kts 27°
2026-05-07 19:24 33.80394 -126.47454 41100 ft 476 kts 27°
2026-05-07 19:25 33.86139 -126.43445 41100 ft 478 kts 27°
2026-05-07 19:25 33.91909 -126.39413 41098 ft 479 kts 27°
2026-05-07 19:26 33.97853 -126.35253 41097 ft 480 kts 27°
2026-05-07 19:26 34.02688 -126.31864 41096 ft 480 kts 27°
2026-05-07 19:27 34.08499 -126.27785 41099 ft 479 kts 27°
2026-05-07 19:27 34.14321 -126.23692 41096 ft 478 kts 27°
2026-05-07 19:28 34.20062 -126.19648 41095 ft 477 kts 27°
2026-05-07 19:28 34.25871 -126.15551 41097 ft 478 kts 27°
2026-05-07 19:29 34.31641 -126.11475 41092 ft 480 kts 27°
2026-05-07 19:29 34.37508 -126.07323 41095 ft 481 kts 28°
2026-05-07 19:30 34.43333 -126.03194 41093 ft 481 kts 27°
2026-05-07 19:30 34.49127 -125.99080 41090 ft 481 kts 27°
2026-05-07 19:31 34.54914 -125.94965 41091 ft 480 kts 27°
2026-05-07 19:31 34.60678 -125.90860 41090 ft 479 kts 27°
2026-05-07 19:32 34.66465 -125.86731 41088 ft 479 kts 27°
2026-05-07 19:32 34.72229 -125.82612 41086 ft 480 kts 28°
2026-05-07 19:33 34.78000 -125.78481 41082 ft 481 kts 28°
2026-05-07 19:33 34.83756 -125.74355 41085 ft 483 kts 28°
2026-05-07 19:34 34.89776 -125.70031 41086 ft 483 kts 28°
2026-05-07 19:34 34.94635 -125.66536 41088 ft 483 kts 28°
2026-05-07 19:35 35.00647 -125.62205 41080 ft 482 kts 28°
2026-05-07 19:35 35.06577 -125.57926 41079 ft 481 kts 28°
2026-05-07 19:36 35.12333 -125.53762 41001 ft 462 kts 27°
2026-05-07 19:36 35.17819 -125.49794 41014 ft 455 kts 27°
2026-05-07 19:37 35.23482 -125.45688 41077 ft 463 kts 28°
2026-05-07 19:37 35.29150 -125.41568 41075 ft 465 kts 27°
2026-05-07 19:38 35.34687 -125.37541 41075 ft 462 kts 28°
2026-05-07 19:38 35.39316 -125.34168 41072 ft 461 kts 28°
2026-05-07 19:39 35.44829 -125.30145 41071 ft 461 kts 28°
2026-05-07 19:39 35.48810 -125.27236 41073 ft 462 kts 28°
2026-05-07 19:40 35.55362 -125.22441 41073 ft 463 kts 28°
2026-05-07 19:40 35.59803 -125.19186 41072 ft 464 kts 28°
2026-05-07 19:41 35.64776 -125.15535 41075 ft 465 kts 28°
2026-05-07 19:41 35.67005 -125.13898 41073 ft 465 kts 28°
2026-05-07 19:42 35.72822 -125.09618 41069 ft 466 kts 28°
2026-05-07 19:42 35.76311 -125.07048 41069 ft 466 kts 28°
2026-05-07 19:43 35.81801 -125.02997 41070 ft 466 kts 28°
2026-05-07 19:43 35.84160 -125.01255 41071 ft 466 kts 28°
2026-05-07 19:44 35.87663 -124.98665 41064 ft 466 kts 28°
2026-05-07 19:44 35.91738 -124.95650 41062 ft 466 kts 28°
2026-05-07 19:45 35.97243 -124.91570 41066 ft 465 kts 28°
2026-05-07 19:45 36.02937 -124.87344 41064 ft 466 kts 28°
2026-05-07 19:46 36.08640 -124.83103 41059 ft 468 kts 28°
2026-05-07 19:46 36.14346 -124.78852 41055 ft 470 kts 28°
2026-05-07 19:47 36.18838 -124.74746 41081 ft 479 kts 45°
2026-05-07 19:47 36.23125 -124.68234 41056 ft 489 kts 50°
2026-05-07 19:48 36.27399 -124.61480 40958 ft 494 kts 50°
2026-05-07 19:48 36.29582 -124.58054 40233 ft 503 kts 50°
2026-05-07 19:48 36.31750 -124.54638 39610 ft 505 kts 50°
2026-05-07 19:49 36.33918 -124.51204 38987 ft 507 kts 50°
2026-05-07 19:49 36.36127 -124.47708 38301 ft 508 kts 50°
2026-05-07 19:49 36.38334 -124.44219 37680 ft 507 kts 50°
2026-05-07 19:49 36.40535 -124.40735 37047 ft 506 kts 50°
2026-05-07 19:50 36.42726 -124.37259 36411 ft 506 kts 51°
2026-05-07 19:50 36.44896 -124.33812 35785 ft 505 kts 51°
2026-05-07 19:50 36.47163 -124.30210 35148 ft 505 kts 51°
2026-05-07 19:50 36.49398 -124.26656 34494 ft 505 kts 51°
2026-05-07 19:51 36.51552 -124.23225 33848 ft 505 kts 51°
2026-05-07 19:51 36.53740 -124.19736 33201 ft 503 kts 51°
2026-05-07 19:51 36.55883 -124.16316 32580 ft 501 kts 51°
2026-05-07 19:51 36.58013 -124.12915 31974 ft 499 kts 51°
2026-05-07 19:52 36.60272 -124.09304 31318 ft 499 kts 51°
2026-05-07 19:52 36.61713 -124.06998 30904 ft 500 kts 51°
2026-05-07 19:52 36.63853 -124.03569 30285 ft 503 kts 51°
2026-05-07 19:52 36.66035 -124.00071 29616 ft 504 kts 51°
2026-05-07 19:53 36.68212 -123.96578 28985 ft 501 kts 51°
2026-05-07 19:53 36.70364 -123.93119 28360 ft 497 kts 51°
2026-05-07 19:53 36.72501 -123.89681 27745 ft 493 kts 51°
2026-05-07 19:53 36.74592 -123.86315 27128 ft 489 kts 51°
2026-05-07 19:54 36.76668 -123.82968 26523 ft 485 kts 51°
2026-05-07 19:54 36.78780 -123.79562 25914 ft 481 kts 51°
2026-05-07 19:54 36.80825 -123.76260 25332 ft 478 kts 51°
2026-05-07 19:54 36.82884 -123.72933 24726 ft 474 kts 51°
2026-05-07 19:55 36.84939 -123.69608 24133 ft 471 kts 51°
2026-05-07 19:55 36.87010 -123.66253 23487 ft 467 kts 51°
2026-05-07 19:55 36.89091 -123.62879 22859 ft 462 kts 51°
2026-05-07 19:55 36.91064 -123.59678 22302 ft 456 kts 51°
2026-05-07 19:56 36.92977 -123.56572 21740 ft 451 kts 51°
2026-05-07 19:56 36.94902 -123.53440 21184 ft 446 kts 51°
2026-05-07 19:56 36.96249 -123.51247 20790 ft 442 kts 51°
2026-05-07 19:56 36.98137 -123.48167 20238 ft 438 kts 52°
2026-05-07 19:57 37.00001 -123.45127 19696 ft 434 kts 52°
2026-05-07 19:57 37.01851 -123.42108 19163 ft 429 kts 52°
2026-05-07 19:57 37.03730 -123.39037 18614 ft 425 kts 52°
2026-05-07 19:57 37.05565 -123.36034 18034 ft 421 kts 52°
2026-05-07 19:58 37.07394 -123.33040 17509 ft 415 kts 52°
2026-05-07 19:58 37.09144 -123.30173 16998 ft 410 kts 52°
2026-05-07 19:58 37.10911 -123.27275 16486 ft 405 kts 52°
2026-05-07 19:58 37.12603 -123.24499 15989 ft 401 kts 52°
2026-05-07 19:59 37.14364 -123.21605 15477 ft 396 kts 52°
2026-05-07 19:59 37.15510 -123.19720 15145 ft 394 kts 52°
2026-05-07 19:59 37.17209 -123.16926 14635 ft 390 kts 52°
2026-05-07 19:59 37.18832 -123.14200 14173 ft 386 kts 57°
2026-05-07 20:00 37.19930 -123.11123 13673 ft 380 kts 73°
2026-05-07 20:00 37.20704 -123.07866 13180 ft 375 kts 74°
2026-05-07 20:00 37.21437 -123.04686 12718 ft 371 kts 74°
2026-05-07 20:00 37.22180 -123.01523 12247 ft 366 kts 74°
2026-05-07 20:01 37.22917 -122.98441 11792 ft 362 kts 74°
2026-05-07 20:01 37.23639 -122.95391 11346 ft 358 kts 74°
2026-05-07 20:01 37.24325 -122.92463 10922 ft 354 kts 75°
2026-05-07 20:01 37.25028 -122.89471 10474 ft 350 kts 75°
2026-05-07 20:02 37.25699 -122.86623 10089 ft 346 kts 75°
2026-05-07 20:02 37.26405 -122.83618 9991 ft 330 kts 75°
2026-05-07 20:02 37.27044 -122.80885 9963 ft 313 kts 75°
2026-05-07 20:02 37.27662 -122.78243 9939 ft 298 kts 75°
2026-05-07 20:03 37.28242 -122.75758 9911 ft 292 kts 75°
2026-05-07 20:03 37.28632 -122.74083 9899 ft 291 kts 75°
2026-05-07 20:03 37.29207 -122.71615 9887 ft 292 kts 75°
2026-05-07 20:03 37.29791 -122.69115 9871 ft 292 kts 75°
2026-05-07 20:04 37.30374 -122.66609 9863 ft 292 kts 75°
2026-05-07 20:04 37.30961 -122.64085 9858 ft 293 kts 75°
2026-05-07 20:04 37.31530 -122.61633 9849 ft 289 kts 75°
2026-05-07 20:04 37.32100 -122.59175 9848 ft 294 kts 75°
2026-05-07 20:05 37.32669 -122.56721 9854 ft 293 kts 75°
2026-05-07 20:05 37.33240 -122.54256 9849 ft 292 kts 75°
2026-05-07 20:05 37.33813 -122.51775 9849 ft 292 kts 75°
2026-05-07 20:05 37.34398 -122.49241 9841 ft 292 kts 75°
2026-05-07 20:06 37.34964 -122.46791 9843 ft 291 kts 75°
2026-05-07 20:06 37.35526 -122.44352 9446 ft 290 kts 75°
2026-05-07 20:06 37.36079 -122.41953 9328 ft 268 kts 75°
2026-05-07 20:06 37.36426 -122.40446 8831 ft 269 kts 75°
2026-05-07 20:07 37.37076 -122.37615 8127 ft 263 kts 75°
2026-05-07 20:07 37.37544 -122.35576 7995 ft 253 kts 74°
2026-05-07 20:07 37.38084 -122.33222 7997 ft 265 kts 74°
2026-05-07 20:07 37.38527 -122.31288 7994 ft 266 kts 74°
2026-05-07 20:08 37.40086 -122.27570 7983 ft 262 kts 36°
2026-05-07 20:08 37.41635 -122.26300 7767 ft 259 kts 30°
2026-05-07 20:09 37.46179 -122.22921 6528 ft 256 kts 30°
2026-05-07 20:09 37.47655 -122.21794 5963 ft 253 kts 29°
2026-05-07 20:10 37.50066 -122.19967 5065 ft 248 kts 29°
2026-05-07 20:10 37.52050 -122.18951 4292 ft 240 kts 360°
2026-05-07 20:10 37.53408 -122.19188 4047 ft 224 kts 339°
2026-05-07 20:10 37.54475 -122.19987 4034 ft 196 kts 316°
2026-05-07 20:11 37.55260 -122.21310 3756 ft 173 kts 300°
2026-05-07 20:11 37.55811 -122.22534 3660 ft 149 kts 298°
2026-05-07 20:11 37.56328 -122.23730 3304 ft 145 kts 297°
2026-05-07 20:11 37.56665 -122.24534 2954 ft 145 kts 297°
2026-05-07 20:12 37.57253 -122.25936 2302 ft 145 kts 297°
2026-05-07 20:12 37.57718 -122.27042 1860 ft 139 kts 297°
2026-05-07 20:12 37.58020 -122.27765 1508 ft 138 kts 297°
2026-05-07 20:12 37.58507 -122.28927 1278 ft 131 kts 296°
2026-05-07 20:13 37.58947 -122.29971 1093 ft 136 kts 296°
2026-05-07 20:13 37.59387 -122.31044 929 ft 140 kts 296°
2026-05-07 20:13 37.59700 -122.31820 822 ft 133 kts 296°
2026-05-07 20:13 37.60253 -122.33139 633 ft 126 kts 301°
2026-05-07 20:14 37.60625 -122.34003 454 ft 125 kts 300°
2026-05-07 20:14 37.60933 -122.34712 308 ft 123 kts 300°
2026-05-07 20:14 37.61350 -122.35709 100 ft 126 kts 298°
2026-05-07 20:14 37.61734 -122.36624 28 ft 108 kts 298°
2026-05-07 20:15 37.61979 -122.37203 28 ft 53 kts 297°
2026-05-07 20:15 37.62146 -122.37594 28 ft 45 kts 297°
2026-05-07 20:15 37.62233 -122.37878 28 ft 39 kts 274°
2026-05-07 20:15 37.62226 -122.38108 28 ft 2 kts 268°
2026-05-07 20:16 37.62226 -122.38109 28 ft 0 kts 268°
2026-05-07 20:16 37.62226 -122.38129 28 ft 10 kts 267°
2026-05-07 20:16 37.62212 -122.38175 26 ft 9 kts 229°
2026-05-07 20:16 37.62114 -122.38249 28 ft 28 kts 205°
2026-05-07 20:17 37.62098 -122.38378 28 ft 12 kts 303°
2026-05-07 20:17 37.62155 -122.38489 28 ft 16 kts 301°
2026-05-07 20:17 37.62185 -122.38554 26 ft 18 kts 300°
2026-05-07 20:17 37.62262 -122.38730 28 ft 20 kts 297°
2026-05-07 20:18 37.62329 -122.38901 28 ft 16 kts 281°
2026-05-07 20:18 37.62322 -122.38951 28 ft 4 kts 232°
2026-05-07 20:18 37.62315 -122.38960 28 ft 3 kts 221°
2026-05-07 20:18 37.62286 -122.38989 28 ft 11 kts 218°
2026-05-07 20:19 37.62261 -122.39018 28 ft 15 kts 225°
2026-05-07 20:19 37.62122 -122.39180 28 ft 23 kts 205°
2026-05-07 20:19 37.61999 -122.39243 28 ft 18 kts 168°
2026-05-07 20:19 37.61939 -122.39161 28 ft 16 kts 116°
2026-05-07 20:20 37.61912 -122.39093 28 ft 0 kts 116°
2026-05-07 20:20 37.61911 -122.39091 28 ft 0 kts 131°
2026-05-07 20:20 37.61865 -122.39088 28 ft 9 kts 203°
2026-05-07 20:21 37.61834 -122.39108 28 ft 0 kts 207°